Weather History for Murray, KY

Change the Weather History Date:

Saturday, September 21, 2013

  Actual Average (KPAH) Record (KPAH)
Temperature  
Mean Temperature 63 °F 68 °F  
Max Temperature 71 °F 80 °F 98 °F (1940)
Min Temperature 55 °F 56 °F 38 °F (1991)
Degree Days  
Heating Degree Days 2 2  
Month to date heating degree days 11  
Since 1 July heating degree days 12  
Cooling Degree Days 0 5  
Month to date cooling degree days 155  
Year to date cooling degree days 1468  
Growing Degree Days 13 (Base 50)    
Moisture  
Dew Point 54 °F    
Average Humidity 73    
Maximum Humidity 100    
Minimum Humidity 43    
Precipitation  
Precipitation 0.13 in 0.12 in 2.57 in (1979)
Month to date precipitation 2.53  
Year to date precipitation 35.01  
Snow  
Snow 0.00 in 0.00 in 0.00 in (2002)
Month to date snowfall 0.0  
Since 1 July snowfall 0.0  
Since 1 September snowfall 0.0  
Snow Depth -    
Sea Level Pressure  
Sea Level Pressure 29.88 in    
Wind  
Wind Speed 8 mph (North)    
Max Wind Speed 17 mph    
Max Gust Speed 25 mph    
Visibility 9 miles    
Events      
T = Trace of Precipitation, MM = Missing Value Source: NWS Daily Summary

Daily Weather History Graph

Daily Weather History Graph

Search for Another Location

Airport:

Trip Planner

Search our weather history database for the weather conditions in past years. The results will help you decide how hot, cold, wet, or windy it might be!

Date:

Astronomy

Sep. 21, 2013 Rise Set
Actual Time 6:40 AM CDT 6:51 PM CDT
Civil Twilight 6:14 AM CDT 7:17 PM CDT
Nautical Twilight 5:44 AM CDT 7:47 PM CDT
Astronomical Twilight 5:14 AM CDT 8:17 PM CDT
Moon 8:07 PM CDT (9/21) 8:54 AM CDT (9/21)
Length of Visible Light 13h 02m
Length of Day
12h 10m
Waning Gibbous, 94% of the Moon is Illuminated
Sep 21
Waning Gibbous
Sep 26
Last Quarter
Oct 4
New
Oct 11
First Quarter
Oct 18
Full

Hourly Weather History & Observations

Time (CDT) Temp. Dew Point Humidity Pressure Visibility Wind Dir Wind Speed Gust Speed Precip Events Conditions
12:15 AM 66.2 °F 66.2 °F 100% 29.83 in 7.0 mi North 5.8 mph - 0.01 in   Clear
12:35 AM 66.2 °F 66.2 °F 100% 29.83 in 5.0 mi North 5.8 mph - 0.01 in   Clear
12:55 AM 66.2 °F 66.2 °F 100% 29.83 in 4.0 mi NNW 5.8 mph - 0.02 in   Clear
1:15 AM 66.2 °F 66.2 °F 100% 29.83 in 3.0 mi NNW 5.8 mph - N/A   Clear
1:35 AM 66.2 °F 66.2 °F 100% 29.83 in 6.0 mi NNW 4.6 mph - 0.01 in   Clear
1:55 AM 66.2 °F 66.2 °F 100% 29.81 in 6.0 mi North 4.6 mph - 0.01 in   Clear
2:15 AM 66.2 °F 66.2 °F 100% 29.82 in 4.0 mi NW 5.8 mph - 0.01 in   Partly Cloudy
2:35 AM 64.4 °F 64.4 °F 100% 29.82 in 2.5 mi North 15.0 mph 20.7 mph 0.09 in   Clear
2:55 AM 64.4 °F 64.4 °F 100% 29.83 in 6.0 mi North 13.8 mph 25.3 mph 0.09 in   Clear
3:15 AM 62.6 °F 62.6 °F 100% 29.83 in 10.0 mi North 10.4 mph - 0.01 in   Clear
3:35 AM 62.6 °F 62.6 °F 100% 29.83 in 10.0 mi North 9.2 mph - 0.01 in   Clear
3:55 AM 62.6 °F 62.6 °F 100% 29.83 in 10.0 mi North 10.4 mph - 0.01 in   Clear
4:15 AM 62.6 °F 62.6 °F 100% 29.83 in 10.0 mi North 11.5 mph - N/A   Clear
4:35 AM 62.6 °F 59.0 °F 88% 29.83 in 10.0 mi North 11.5 mph 16.1 mph N/A   Clear
4:55 AM 62.6 °F 57.2 °F 82% 29.84 in 10.0 mi North 11.5 mph - N/A   Clear
5:15 AM 62.6 °F 57.2 °F 82% 29.85 in 10.0 mi North 11.5 mph 17.3 mph N/A   Clear
5:35 AM 60.8 °F 57.2 °F 88% 29.85 in 10.0 mi North 11.5 mph - N/A   Clear
5:55 AM 60.8 °F 55.4 °F 82% 29.86 in 10.0 mi North 10.4 mph - N/A   Clear
6:15 AM 59.0 °F 55.4 °F 88% 29.87 in 10.0 mi North 11.5 mph - N/A   Clear
6:35 AM 59.0 °F 55.4 °F 88% 29.87 in 10.0 mi North 8.1 mph - N/A   Clear
6:55 AM 59.0 °F 55.4 °F 88% 29.89 in 10.0 mi North 9.2 mph - N/A   Clear
7:15 AM 59.0 °F 55.4 °F 88% 29.89 in 10.0 mi NNW 8.1 mph - N/A   Clear
7:35 AM 57.2 °F 55.4 °F 94% 29.90 in 10.0 mi North 10.4 mph - N/A   Clear
7:55 AM 59.0 °F 55.4 °F 88% 29.90 in 10.0 mi North 8.1 mph - N/A   Clear
8:15 AM 59.0 °F 53.6 °F 82% 29.91 in 10.0 mi North 11.5 mph - N/A   Clear
8:35 AM 59.0 °F 53.6 °F 82% 29.91 in 10.0 mi North 10.4 mph 16.1 mph N/A   Clear
8:55 AM 59.0 °F 53.6 °F 82% 29.92 in 10.0 mi North 8.1 mph 17.3 mph N/A   Clear
9:15 AM 60.8 °F 53.6 °F 77% 29.92 in 10.0 mi North 11.5 mph - N/A   Clear
9:35 AM 62.6 °F 53.6 °F 72% 29.92 in 10.0 mi NNE 11.5 mph 16.1 mph N/A   Clear
9:55 AM 62.6 °F 53.6 °F 72% 29.92 in 10.0 mi NNE 12.7 mph - N/A   Clear
10:15 AM 64.4 °F 53.6 °F 68% 29.92 in 10.0 mi NNE 17.3 mph 21.9 mph N/A   Clear
10:35 AM 64.4 °F 51.8 °F 64% 29.92 in 10.0 mi NE 12.7 mph 19.6 mph N/A   Clear
10:55 AM 66.2 °F 50.0 °F 56% 29.92 in 10.0 mi North 17.3 mph 23.0 mph N/A   Clear
11:15 AM 66.2 °F 50.0 °F 56% 29.92 in 10.0 mi North 13.8 mph 17.3 mph N/A   Clear
11:35 AM 66.2 °F 50.0 °F 56% 29.92 in 10.0 mi North 16.1 mph 21.9 mph N/A   Clear
11:55 AM 68.0 °F 48.2 °F 49% 29.92 in 10.0 mi North 12.7 mph 20.7 mph N/A   Clear
12:15 PM 68.0 °F 50.0 °F 52% 29.91 in 10.0 mi NNW 16.1 mph 19.6 mph N/A   Clear
12:35 PM 68.0 °F 50.0 °F 52% 29.91 in 10.0 mi NNW 8.1 mph 18.4 mph N/A   Clear
12:55 PM 68.0 °F 48.2 °F 49% 29.91 in 10.0 mi North 12.7 mph 18.4 mph N/A   Clear
1:15 PM 69.8 °F 48.2 °F 46% 29.90 in 10.0 mi North 13.8 mph - N/A   Clear
1:35 PM 69.8 °F 50.0 °F 49% 29.89 in 10.0 mi North 12.7 mph - N/A   Clear
1:55 PM 69.8 °F 48.2 °F 46% 29.89 in 10.0 mi North 11.5 mph - N/A   Clear
2:15 PM 71.6 °F 50.0 °F 46% 29.89 in 10.0 mi North 9.2 mph - N/A   Clear
2:35 PM 71.6 °F 48.2 °F 43% 29.88 in 10.0 mi North 10.4 mph 16.1 mph N/A   Clear
2:55 PM 71.6 °F 50.0 °F 46% 29.88 in 10.0 mi NNW 11.5 mph 16.1 mph N/A   Unknown
3:15 PM 71.6 °F 50.0 °F 46% 29.87 in 10.0 mi NNW 9.2 mph - N/A   Clear
3:35 PM 71.6 °F 50.0 °F 46% 29.87 in 10.0 mi North 8.1 mph 17.3 mph N/A   Clear
3:55 PM 71.6 °F 50.0 °F 46% 29.87 in 10.0 mi NNW 12.7 mph 18.4 mph N/A   Clear
4:15 PM 69.8 °F 50.0 °F 49% 29.87 in 10.0 mi North 8.1 mph 16.1 mph N/A   Clear
4:35 PM 71.6 °F 50.0 °F 46% 29.87 in 10.0 mi North 6.9 mph - N/A   Unknown
4:55 PM 69.8 °F 50.0 °F 49% 29.87 in 10.0 mi North 9.2 mph 16.1 mph N/A   Unknown
5:15 PM 68.0 °F 50.0 °F 52% 29.87 in 10.0 mi North 8.1 mph - N/A   Unknown
5:35 PM 68.0 °F 48.2 °F 49% 29.88 in 10.0 mi North 10.4 mph - N/A   Clear
5:55 PM 68.0 °F 50.0 °F 52% 29.88 in 10.0 mi North 5.8 mph - N/A   Clear
6:15 PM 68.0 °F 50.0 °F 52% 29.88 in 10.0 mi North 5.8 mph - N/A   Clear
6:35 PM 66.2 °F 50.0 °F 56% 29.88 in 10.0 mi North 5.8 mph - N/A   Clear
6:55 PM 64.4 °F 50.0 °F 59% 29.89 in 10.0 mi North 3.5 mph - N/A   Clear
7:15 PM 60.8 °F 53.6 °F 77% 29.89 in 10.0 mi North 3.5 mph - N/A   Clear
7:35 PM 59.0 °F 53.6 °F 82% 29.89 in 10.0 mi Calm Calm - N/A   Clear
7:55 PM 60.8 °F 51.8 °F 72% 29.90 in 10.0 mi NNW 3.5 mph - N/A   Clear
8:15 PM 60.8 °F 51.8 °F 72% 29.90 in 10.0 mi NNW 4.6 mph - N/A   Clear
8:35 PM 59.0 °F 50.0 °F 72% 29.90 in 10.0 mi NNW 3.5 mph - N/A   Clear
8:55 PM 60.8 °F 51.8 °F 72% 29.91 in 10.0 mi North 3.5 mph - N/A   Clear
9:15 PM 59.0 °F 50.0 °F 72% 29.91 in 10.0 mi Calm Calm - N/A   Clear
9:35 PM 55.4 °F 53.6 °F 94% 29.91 in 10.0 mi NNW 3.5 mph - N/A   Clear
9:55 PM 55.4 °F 51.8 °F 88% 29.91 in 10.0 mi North 3.5 mph - N/A   Clear
10:15 PM 55.4 °F 51.8 °F 88% 29.91 in 10.0 mi Calm Calm - N/A   Clear
10:35 PM 57.2 °F 50.0 °F 77% 29.91 in 10.0 mi NNW 3.5 mph - N/A   Clear
10:55 PM 57.2 °F 50.0 °F 77% 29.91 in 10.0 mi North 5.8 mph - N/A   Clear
11:15 PM 55.4 °F 50.0 °F 82% 29.91 in 10.0 mi North 4.6 mph - N/A   Clear
11:35 PM 57.2 °F 50.0 °F 77% 29.91 in 10.0 mi NNW 4.6 mph - N/A   Clear
11:55 PM 57.2 °F 50.0 °F 77% 29.91 in 10.0 mi NNW 5.8 mph - N/A   Clear